Tracking 19219 objects as of 19-Jul-2018
HD Live streaming from Space Station
objects crossing your sky now

FENGYUN 1C DEB

Track FENGYUN 1C DEB now!
10-day predictions


NORAD ID: 32192
Int'l Code: 1999-025CUN
Perigee: 834.0 km
Apogee: 1,104.3 km
Inclination: 98.7 °
Period: 104.3 minutes
Semi major axis: 7340 km
RCS: 0.0039 m2 (small)
Launch date: May 10, 1999
Source: People's Republic of China (PRC)
Launch site: Taiyaun Space Center, China (TSC)

Note: This is SATELLITE DEBRIS
aabbcc
Your satellite tracking list
Your tracking list is empty




NASA's NSSDC Master Catalog

Two Line Element Set (TLE):
1 32192U 99025CUN 18198.10383660 +.00000104 +00000-0 +12144-3 0  9996
2 32192 098.6638 254.2335 0184184 283.8809 074.1918 13.80528661553640
Source of the keplerian elements: AFSPC